Weather History for Perry, FL

Change the Weather History Date:

Sunday, November 25, 2012

  Actual Average (KCTY) Record (KCTY)
Temperature  
Mean Temperature 46 °F 60 °F  
Max Temperature 64 °F 73 °F 82 °F (2001)
Min Temperature 28 °F 48 °F 29 °F (2012)
Degree Days  
Heating Degree Days 19 6  
Month to date heating degree days 103  
Since 1 July heating degree days 135  
Cooling Degree Days 0 1  
Month to date cooling degree days 53  
Year to date cooling degree days 2596  
Moisture  
Dew Point 28 °F    
Average Humidity 63    
Maximum Humidity 92    
Minimum Humidity 18    
Precipitation  
Precipitation 0.00 in 0.10 in 1.44 in (2000)
Month to date precipitation 2.12  
Year to date precipitation 45.35  
Sea Level Pressure  
Sea Level Pressure 30.16 in    
Wind  
Wind Speed 1 mph (WNW)    
Max Wind Speed 9 mph    
Max Gust Speed -    
T = Trace of Precipitation, MM = Missing Value Source: NWS Daily Summary

Daily Weather History Graph

Daily Weather History Graph

Search for Another Location

Airport:

Trip Planner

Search our weather history database for the weather conditions in past years. The results will help you decide how hot, cold, wet, or windy it might be!

Date:

Astronomy

Nov. 25, 2012 Rise Set
Actual Time 7:08 AM EST 5:34 PM EST
Civil Twilight 6:42 AM EST 6:00 PM EST
Nautical Twilight 6:13 AM EST 6:29 PM EST
Astronomical Twilight 5:44 AM EST 6:58 PM EST
Moon 3:44 PM EST (11/25) 4:29 AM EST (11/25)
Length of Visible Light 11h 17m
Length of Day
10h 26m
Waxing Gibbous, 93% of the Moon is Illuminated
Nov 25
Waxing Gibbous
Nov 28
Full
Dec 6
Last Quarter
Dec 13
New
Dec 20
First Quarter

Hourly Weather History & Observations

Time (EST) Temp. Windchill Dew Point Humidity Pressure Visibility Wind Dir Wind Speed Gust Speed Precip Events Conditions
12:53 AM 35.1 °F - 30.0 °F 82% 30.13 in - Calm Calm - N/A   Unknown
1:53 AM 35.1 °F 32.2 °F 30.9 °F 85% 30.13 in - North 3.5 mph - N/A   Unknown
2:53 AM 32.0 °F - 27.0 °F 82% 30.13 in - Calm Calm - N/A   Unknown
3:53 AM 30.9 °F - 28.0 °F 89% 30.14 in - Calm Calm - N/A   Unknown
4:53 AM 30.0 °F - 26.1 °F 85% 30.14 in - Calm Calm - N/A   Unknown
5:53 AM 28.9 °F - 26.1 °F 89% 30.16 in - Calm Calm - N/A   Unknown
6:53 AM 28.9 °F - 25.0 °F 85% 30.17 in - Calm Calm - N/A   Unknown
7:53 AM 30.0 °F - 28.0 °F 92% 30.19 in - Calm Calm - N/A   Unknown
8:53 AM 42.1 °F - 30.9 °F 65% 30.22 in - Calm Calm - N/A   Unknown
9:53 AM 50.0 °F - 24.1 °F 36% 30.23 in - Calm Calm - N/A   Unknown
10:53 AM 54.0 °F - 23.0 °F 30% 30.22 in - Calm Calm - N/A   Unknown
11:53 AM 57.0 °F - 21.9 °F 26% 30.20 in - WSW 3.5 mph - N/A   Unknown
12:53 PM 61.0 °F - 21.9 °F 22% 30.17 in - Variable 3.5 mph - N/A   Unknown
1:53 PM 64.0 °F - 19.9 °F 18% 30.14 in - NW 5.8 mph - N/A   Unknown
2:53 PM 64.9 °F - 21.0 °F 19% 30.12 in - West 6.9 mph - N/A   Unknown
3:53 PM 64.0 °F - 21.0 °F 19% 30.12 in - WNW 4.6 mph - N/A   Unknown
4:53 PM 60.1 °F - 32.0 °F 35% 30.13 in - SW 9.2 mph - N/A   Unknown
5:53 PM 52.0 °F - 34.0 °F 50% 30.14 in - Calm Calm - N/A   Unknown
6:53 PM 44.1 °F - 35.1 °F 71% 30.15 in - Calm Calm - N/A   Unknown
7:53 PM 42.1 °F - 35.1 °F 76% 30.17 in - Calm Calm - N/A   Unknown
8:53 PM 39.9 °F - 36.0 °F 86% 30.17 in - Calm Calm - N/A   Unknown
9:53 PM 37.0 °F - 34.0 °F 89% 30.18 in - Calm Calm - N/A   Unknown
10:53 PM 37.0 °F - 33.1 °F 86% 30.18 in - Calm Calm - N/A   Unknown
11:53 PM 35.1 °F - 32.0 °F 89% 30.18 in - Calm Calm - N/A   Unknown